Regional Weather Roundup
Issued by NWS Raleigh/Durham, NC

Home | Current Version | Previous Version | Text Only | Print | Product List | Glossary On
Versions: 1 2 3 4 5 6 7 8 9 10 11 12 13 14 15 16 17 18 19 20 21 22 23 24 25 26 27
000
ASUS42 KRAH 260410
RWRRAH
NORTH CAROLINA WEATHER ROUNDUP
NATIONAL WEATHER SERVICE RALEIGH NC
1200 AM EDT WED APR 26 2017

NOTE: "FAIR" INDICATES FEW OR NO CLOUDS BELOW 12,000 FEET WITH NO
SIGNIFICANT WEATHER AND/OR OBSTRUCTIONS TO VISIBILITY.

NCZ001-053-055-056-065-067-260500-
WESTERN NORTH CAROLINA

CITY           SKY/WX    TMP DP  RH WIND       PRES   REMARKS
ASHEVILLE      NOT AVBL
JEFFERSON      CLEAR     56  52  85 W5        29.84S
MORGANTON      CLOUDY    58  58 100 CALM      29.84R
HICKORY        NOT AVBL
RUTHERFORDTON  NOT AVBL
MOUNT AIRY     NOT AVBL
BOONE          CLEAR     48  48 100 CALM      29.85S
$$

NCZ021-022-025-041-071-084-088-260500-
CENTRAL NORTH CAROLINA

CITY           SKY/WX    TMP DP  RH WIND       PRES   REMARKS
CHARLOTTE      NOT AVBL
GREENSBORO     MOCLDY    57  57 100 NW5       29.77S
WINSTON-SALEM  CLOUDY    58  54  86 CALM      29.79S
RALEIGH-DURHAM MOCLDY    61  58  90 VRB3      29.75S
FORT BRAGG     CLOUDY    63  59  88 NW8       29.74F
FAYETTEVILLE   CLOUDY    64  60  87 W7        29.75S
BURLINGTON     CLEAR     58  56  93 CALM      29.76S
LAURINBURG     CLEAR     59  58  96 NW5       29.77F
$$

NCZ011-015-027-028-043-044-047-080-103-260500-
NORTHEASTERN NORTH CAROLINA

CITY           SKY/WX    TMP DP  RH WIND       PRES   REMARKS
ROCKY MT-WILSO CLOUDY    62  61  96 NW8       29.72S
GREENVILLE     PTCLDY    63  61  94 W6        29.74R
WASHINGTON     CLEAR     62  61  97 SW5       29.70R
ELIZABETH CITY LGT RAIN  63  63 100 W6        29.68
MANTEO         CLEAR     64  61  88 W6        29.68S
CAPE HATTERAS  CLEAR     67  63  87 W8        29.69R FOG
$$

NCZ078-087-090-091-093-098-101-260500-
SOUTHEASTERN NORTH CAROLINA

CITY           SKY/WX    TMP DP  RH WIND       PRES   REMARKS
LUMBERTON      CLEAR     60  60 100 W5        29.76S
GOLDSBORO      CLEAR     61  61 100 W6        29.71R
KINSTON        CLEAR     61  59  95 CALM      29.72R
KENANSVILLE    CLEAR     59  57  94 SW5       29.73S
NEW BERN       CLEAR     62  61  96 W6        29.73R
CHERRY POINT   CLEAR     64  60  87 W9        29.72R
BEAUFORT       CLEAR     65  62  90 W12       29.72R
JACKSONVILLE   CLEAR     61  61 100 W7        29.73R
WILMINGTON     CLEAR     62  60  93 W9        29.75R
$$





USA.gov is the U.S. government's official web portal to all federal, state and local government web resources and services.